Location: Feydey
(46.3431°N, 7.0106°E)
Time: 22:12:00
(UTC+00:00)

Lacrosse 5 rocket - Pass Details

Date: 20 June 2021
Orbit: 459 x 634 km, 57.0° (Epoch: 23 July)

Event Time Altitude Azimuth Distance (km) Brightness Sun altitude
Rises 20:23:05 0° 228° (SW) 2,554 4.7 -8.0°
Reaches altitude 10° 20:25:16 10° 227° (SW) 1,653 3.8 -8.2°
Maximum altitude 20:28:58 84° 139° (SE) 477 0.9 -8.7°
Drops below altitude 10° 20:32:34 10° 52° (NE) 1,615 3.7 -9.1°
Sets 20:34:41 0° 52° (NE) 2,487 4.6 -9.3°
